Orlando International, FL

1:41 AM EDT on May 28, 2018 (GMT -0400)
Orlando International

Weather History for KMCO - December, 2013

Change the Weather History Date:

Monday, December 2, 2013

  Actual Average Record
Temperature  
Mean Temperature 66 °F 65 °F  
Max Temperature 73 °F 75 °F 87 °F (1982)
Min Temperature 59 °F 55 °F 30 °F (1910)
Degree Days  
Heating Degree Days 0 3  
Month to date heating degree days 0 6  
Since 1 July heating degree days 23 53  
Cooling Degree Days 1 3  
Month to date cooling degree days 5 6  
Year to date cooling degree days 3566 3360  
Growing Degree Days 16 (Base 50)    
Moisture  
Dew Point 59 °F    
Average Humidity 77    
Maximum Humidity 100    
Minimum Humidity 53    
Precipitation  
Precipitation 0.00 in 0.08 in 0.91 in (1931)
Month to date precipitation T 0.16  
Year to date precipitation 42.44 48.31  
Sea Level Pressure  
Sea Level Pressure 29.92 in    
Wind  
Wind Speed 5 mph (NW)    
Max Wind Speed 16 mph    
Max Gust Speed 20 mph    
Visibility 6 miles    
Events Fog    
T = Trace of Precipitation, MM = Missing Value Source: NWS Daily Summary

Daily Weather History Graph

Daily Weather History Graph

Search for Another Location

Airport or City:

Astronomy

Dec. 02, 2013 Rise Set
Actual Time 7:01 AM EST 5:28 PM EST
Civil Twilight 6:35 AM EST 5:53 PM EST
Nautical Twilight 6:06 AM EST 6:23 PM EST
Astronomical Twilight 5:37 AM EST 6:51 PM EST
Moon 6:27 AM EST (12/2) 5:27 PM EST (12/2)
Length of Visible Light 11h 18m
Length of Day
10h 27m
Waning Crescent, 0% of the Moon is Illuminated
Dec 2
Waning Crescent
Dec 2
New
Dec 9
First Quarter
Dec 17
Full
Dec 25
Last Quarter

Hourly Weather History & Observations

Time (EST) Temp. Dew Point Humidity Pressure Visibility Wind Dir Wind Speed Gust Speed Precip Events Conditions
12:53 AM 64.0 °F 63.0 °F 96% 29.97 in 0.5 mi Calm Calm - N/A   Overcast
1:53 AM 64.0 °F 63.0 °F 96% 29.96 in 0.5 mi NNW 5.8 mph - N/A   Overcast
2:53 AM 63.0 °F 62.1 °F 97% 29.94 in 0.5 mi Calm Calm - N/A Fog Fog
3:25 AM 62.6 °F 62.6 °F 100% 29.94 in 0.2 mi NW 4.6 mph - N/A Fog Fog
3:42 AM 62.6 °F 62.6 °F 100% 29.94 in 0.5 mi Calm Calm - N/A Fog Fog
3:53 AM 63.0 °F 62.1 °F 97% 29.94 in 0.2 mi WNW 4.6 mph - N/A Fog Fog
4:32 AM 62.6 °F 62.6 °F 100% 29.94 in 0.5 mi NNW 5.8 mph - N/A Fog Patches of Fog
4:53 AM 63.0 °F 63.0 °F 100% 29.93 in 0.5 mi Calm Calm - N/A Fog Patches of Fog
5:53 AM 63.0 °F 62.1 °F 97% 29.94 in 0.5 mi NW 4.6 mph - N/A Fog Patches of Fog
6:50 AM 62.6 °F 62.6 °F 100% 29.95 in 2.0 mi WNW 6.9 mph - N/A   Overcast
6:53 AM 63.0 °F 62.1 °F 97% 29.94 in 2.0 mi NW 6.9 mph - N/A   Overcast
7:11 AM 62.6 °F 60.8 °F 94% 29.94 in 6.0 mi NW 5.8 mph - N/A   Overcast
7:53 AM 62.1 °F 60.1 °F 93% 29.94 in 6.0 mi Calm Calm - N/A   Overcast
8:43 AM 62.6 °F 60.8 °F 94% 29.94 in 10.0 mi WNW 10.4 mph - N/A   Overcast
8:53 AM 63.0 °F 60.1 °F 90% 29.94 in 8.0 mi NW 8.1 mph - N/A   Overcast
9:32 AM 64.4 °F 60.8 °F 88% 29.94 in 10.0 mi NW 9.2 mph - N/A   Overcast
9:53 AM 64.9 °F 61.0 °F 87% 29.94 in 10.0 mi NW 6.9 mph - N/A   Overcast
10:53 AM 68.0 °F 61.0 °F 78% 29.93 in 10.0 mi NW 9.2 mph - N/A   Overcast
11:53 AM 69.1 °F 59.0 °F 70% 29.89 in 10.0 mi Variable 5.8 mph - N/A   Mostly Cloudy
12:53 PM 70.0 °F 59.0 °F 68% 29.86 in 10.0 mi West 8.1 mph - N/A   Mostly Cloudy
1:53 PM 71.1 °F 55.9 °F 59% 29.84 in 10.0 mi West 10.4 mph - N/A   Mostly Cloudy
2:53 PM 73.0 °F 55.9 °F 55% 29.84 in 10.0 mi West 9.2 mph - N/A   Scattered Clouds
3:53 PM 72.0 °F 53.1 °F 51% 29.84 in 10.0 mi WNW 10.4 mph - N/A   Scattered Clouds
4:53 PM 71.1 °F 53.1 °F 53% 29.86 in 10.0 mi West 9.2 mph - N/A   Scattered Clouds
5:53 PM 66.9 °F 53.1 °F 61% 29.87 in 10.0 mi SW 3.5 mph - N/A   Partly Cloudy
6:53 PM 64.0 °F 54.0 °F 70% 29.88 in 10.0 mi Calm Calm - N/A   Mostly Cloudy
7:53 PM 66.0 °F 55.0 °F 68% 29.89 in 10.0 mi Calm Calm - N/A   Overcast
8:53 PM 64.9 °F 55.9 °F 73% 29.90 in 10.0 mi ENE 6.9 mph - N/A   Overcast
9:53 PM 62.1 °F 59.0 °F 90% 29.92 in 10.0 mi East 3.5 mph - N/A   Mostly Cloudy
10:53 PM 60.1 °F 57.9 °F 93% 29.93 in 9.0 mi Calm Calm - N/A   Scattered Clouds
11:53 PM 61.0 °F 57.9 °F 90% 29.92 in 10.0 mi Calm Calm - N/A   Mostly Cloudy